This is the latest recevied weather packets stored in our database for station/object K1KOF. If no packets are shown the sender has not sent any weather packets the latest 10 day(s).
| Time | Temp. | Humidity | Pressure | Rain* | Wind** | Luminosity | Snow |
|---|---|---|---|---|---|---|---|
| 1777849154 | 20° C | 46% | 1026.9 hPa | 0 mm | - | 34 W/m² | - |
| 1777848850 | 20° C | 43% | 1026.6 hPa | 0 mm | - | 60 W/m² | - |
| 1777848546 | 20° C | 45% | 1026.9 hPa | 0 mm | - | 62 W/m² | - |
| 1777848243 | 20° C | 42% | 1026.9 hPa | 0 mm | - | 42 W/m² | - |
| 1777847941 | 20° C | 43% | 1026.7 hPa | 0 mm | - | 84 W/m² | - |
| 1777847639 | 20° C | 43% | 1027.1 hPa | 0 mm | - | 48 W/m² | - |
| 1777847334 | 20° C | 42% | 1026.9 hPa | 0 mm | - | 44 W/m² | - |
| 1777847033 | 20.56° C | 41% | 1027 hPa | 0 mm | - | 82 W/m² | - |
| 1777846730 | 20.56° C | 41% | 1026.9 hPa | 0 mm | - | 50 W/m² | - |
| 1777846429 | 20.56° C | 41% | 1026.8 hPa | 0 mm | - | 44 W/m² | - |
| 1777846124 | 20.56° C | 40% | 1026.8 hPa | 0 mm | - | 50 W/m² | - |
| 1777845822 | 21.11° C | 40% | 1026.8 hPa | 0 mm | - | 324 W/m² | - |
| 1777845518 | 21.11° C | 41% | 1026.7 hPa | 0 mm | - | 328 W/m² | - |
| 1777845216 | 21.67° C | 43% | 1026.9 hPa | 0 mm | - | 283 W/m² | - |
| 1777844913 | 22.22° C | 41% | 1027 hPa | 0 mm | - | 265 W/m² | - |
| 1777844610 | 21.11° C | 44% | 1027 hPa | 0 mm | - | 336 W/m² | - |
| 1777844308 | 22.22° C | 42% | 1026.9 hPa | 0 mm | - | 228 W/m² | - |
| 1777844005 | 22.22° C | 40% | 1027 hPa | 0 mm | - | 418 W/m² | - |
| 1777843702 | 21.67° C | 41% | 1026.9 hPa | 0 mm | - | 335 W/m² | - |
| 1777843400 | 21.67° C | 41% | 1026.9 hPa | 0 mm | - | 385 W/m² | - |
| 1777843097 | 22.22° C | 41% | 1027 hPa | 0 mm | - | 378 W/m² | - |
| 1777842794 | 22.22° C | 41% | 1026.9 hPa | 0 mm | - | 472 W/m² | - |
| 1777842494 | 22.22° C | 41% | 1027 hPa | 0 mm | - | 385 W/m² | - |
| 1777842191 | 21.67° C | 42% | 1027.1 hPa | 0 mm | - | 340 W/m² | - |
| 1777841886 | 21.67° C | 38% | 1027.1 hPa | 0 mm | - | 493 W/m² | - |
* Rain latest hour (hover to see other rain measurements)
** Current wind speed in m/s (hover to see current wind gust speed)